Moab, UT

10:04 PM MST on February 06, 2016 (GMT -0700)
Canyonlands

Weather History for KCNY - February, 2014

Change the Weather History Date:

Friday, February 21, 2014

  Actual Average Record
Temperature  
Mean Temperature 39 °F 37 °F  
Max Temperature 55 °F 49 °F 68 °F (1972)
Min Temperature 23 °F 26 °F 9 °F (1939)
Degree Days  
Heating Degree Days 26 28  
Month to date heating degree days 567 651  
Since 1 July heating degree days 4610 4226  
Cooling Degree Days 0 0  
Month to date cooling degree days 0 0  
Year to date cooling degree days 0 0  
Moisture  
Dew Point 14 °F    
Average Humidity 38    
Maximum Humidity 58    
Minimum Humidity 18    
Precipitation  
Precipitation 0.00 in 0.02 in 0.20 in (1979)
Month to date precipitation 0.04 0.41  
Year to date precipitation 0.31 1.05  
Sea Level Pressure  
Sea Level Pressure 30.04 in    
Wind  
Wind Speed 3 mph (WNW)    
Max Wind Speed 13 mph    
Max Gust Speed 17 mph    
Visibility 10 miles    
Events      
T = Trace of Precipitation, MM = Missing Value Source: NWS Daily Summary

Daily Weather History Graph

Daily Weather History Graph

Search for Another Location

Airport or City:

Trip Planner

Search our weather history database for the weather conditions in past years. The results will help you decide how hot, cold, wet, or windy it might be!

Date:

Astronomy

Feb. 21, 2014 Rise Set
Actual Time 7:02 AM MST 6:03 PM MST
Civil Twilight 6:35 AM MST 6:30 PM MST
Nautical Twilight 6:04 AM MST 7:01 PM MST
Astronomical Twilight 5:33 AM MST 7:32 PM MST
Moon No Moon Rise 10:33 AM MST (2/21)
Length of Visible Light 11h 55m
Length of Day
11h 01m
Waning Gibbous, 60% of the Moon is Illuminated
Feb 21
Waning Gibbous
Feb 22
Last Quarter
Mar 1
New
Mar 8
First Quarter
Mar 16
Full

Hourly Weather History & Observations

Time (MST) Temp. Windchill Dew Point Humidity Pressure Visibility Wind Dir Wind Speed Gust Speed Precip Events Conditions
12:53 AM 27.0 °F - 12.0 °F 53% 30.13 in 10.0 mi Calm Calm - N/A   Clear
1:53 AM 27.0 °F - 12.0 °F 53% 30.10 in 10.0 mi Calm Calm - N/A   Clear
2:53 AM 27.0 °F - 14.0 °F 58% 30.10 in 10.0 mi Calm Calm - N/A   Clear
3:53 AM 28.0 °F 24.2 °F 10.9 °F 49% 30.10 in 10.0 mi WSW 3.5 mph - N/A   Clear
4:53 AM 27.0 °F - 12.9 °F 56% 30.11 in 10.0 mi Calm Calm - N/A   Clear
5:53 AM 28.0 °F 22.8 °F 10.9 °F 49% 30.11 in 10.0 mi NE 4.6 mph - N/A   Clear
6:53 AM 26.1 °F 19.4 °F 12.9 °F 58% 30.13 in 10.0 mi West 5.8 mph - N/A   Clear
7:53 AM 28.9 °F - 15.1 °F 56% 30.14 in 10.0 mi Calm Calm - N/A   Clear
8:53 AM 34.0 °F - 14.0 °F 44% 30.13 in 10.0 mi Calm Calm - N/A   Clear
9:53 AM 41.0 °F 39.0 °F 10.9 °F 29% 30.12 in 10.0 mi Variable 3.5 mph - N/A   Clear
10:53 AM 44.1 °F 41.5 °F 12.9 °F 28% 30.10 in 10.0 mi NNW 4.6 mph - N/A   Clear
11:53 AM 46.0 °F - 12.0 °F 25% 30.08 in 10.0 mi Calm Calm - N/A   Clear
12:53 PM 48.9 °F - 10.9 °F 22% 30.05 in 10.0 mi NNW 5.8 mph - N/A   Clear
1:53 PM 51.1 °F - 12.9 °F 22% 30.02 in 10.0 mi NW 8.1 mph - N/A   Clear
2:53 PM 53.1 °F - 14.0 °F 21% 29.99 in 10.0 mi NNW 9.2 mph - N/A   Clear
3:53 PM 54.0 °F - 12.9 °F 20% 29.96 in 10.0 mi NW 6.9 mph - N/A   Clear
4:53 PM 54.0 °F - 10.9 °F 18% 29.94 in 10.0 mi Calm Calm - N/A   Clear
5:53 PM 48.9 °F - 19.9 °F 32% 29.94 in 10.0 mi NNW 4.6 mph - N/A   Clear
6:53 PM 39.9 °F 34.5 °F 16.0 °F 38% 29.97 in 10.0 mi West 8.1 mph - N/A   Clear
7:53 PM 39.9 °F - 17.1 °F 40% 29.97 in 10.0 mi Calm Calm - N/A   Clear
8:53 PM 41.0 °F 38.0 °F 14.0 °F 33% 29.95 in 10.0 mi SW 4.6 mph - N/A   Clear
9:53 PM 39.9 °F - 15.1 °F 36% 29.94 in 10.0 mi Calm Calm - N/A   Clear
10:53 PM 36.0 °F 33.3 °F 16.0 °F 44% 29.94 in 10.0 mi Variable 3.5 mph - N/A   Clear
11:53 PM 30.0 °F 26.5 °F 18.0 °F 61% 29.96 in 10.0 mi South 3.5 mph - N/A   Clear